Theta_e
314 314 315 315 314 316 317 318 318 318 318 316 317 317 318 318 319 317 319 319 317 337 345 340 339 343 345 343 345 347 348 348 344 343 343 348 347 347 348 349 350 346 341 337 335 334 334 335 335 333 330 326 321 316 312 312 314 318 320 322 325 328 330 329 326 322 320 319 319 322 326 331 334 336 337 336 337 337 337 337 336 336 335 335 335 334 334 335 335 336 335 335 334 334 334 333 332
314 314 314 314 314 316 318 319 317 317 316 315 316 319 319 318 319 318 319 317 323 342 346 344 343 343 345 345 346 347 348 348 345 346 347 347 347 348 348 349 348 343 339 336 335 335 334 335 335 334 331 328 324 318 313 312 313 317 320 322 325 328 332 333 332 331 330 328 328 329 331 335 336 337 336 337 337 337 337 337 337 336 336 335 335 335 335 335 335 336 335 334 333 333 332 332 330
313 314 314 314 314 316 318 317 316 316 314 314 315 320 319 317 320 318 318 320 334 344 342 345 345 345 344 342 344 345 349 348 346 347 347 346 347 347 348 348 346 341 338 336 335 334 334 335 335 334 332 330 326 320 314 312 313 316 320 322 325 328 332 335 335 334 334 333 333 333 334 336 336 336 337 337 337 337 337 337 336 336 336 336 337 336 335 335 335 336 335 333 331 330 330 328 327
313 313 313 314 315 317 320 318 317 316 313 313 314 318 319 319 319 316 326 332 340 342 341 348 347 347 345 343 345 345 348 349 348 346 346 346 346 346 346 345 342 339 337 336 336 334 335 335 336 335 333 332 328 321 315 312 312 315 319 322 324 327 331 334 334 334 334 334 334 334 335 336 336 336 336 337 337 337 337 337 337 337 337 337 337 336 336 336 336 335 334 331 328 328 327 325 324
312 313 313 314 316 317 319 317 317 315 313 315 314 317 318 318 316 320 336 339 338 339 344 348 346 346 346 347 346 345 348 348 348 345 345 346 344 344 344 342 340 338 337 337 336 335 335 335 336 336 334 333 330 323 317 313 312 313 317 320 324 326 329 331 332 333 333 333 334 334 336 336 336 336 336 336 336 336 337 337 336 337 336 336 336 335 335 335 335 334 333 329 325 326 325 323 323
312 312 313 314 316 317 317 314 315 315 315 318 315 317 318 317 316 320 330 335 339 341 345 347 344 346 347 348 346 347 347 347 347 345 346 345 342 342 342 341 340 338 337 337 337 336 336 336 336 336 335 333 331 325 320 316 312 312 316 320 323 326 328 330 331 332 332 333 334 334 335 336 336 336 335 335 336 336 335 336 335 335 335 335 334 334 333 333 333 332 332 327 323 324 323 322 325
312 312 314 314 315 316 317 315 314 316 316 316 316 317 317 316 315 316 319 327 340 343 346 346 344 346 347 347 347 347 347 347 347 346 346 345 343 342 341 341 340 340 338 337 338 337 336 336 336 336 335 334 332 328 324 319 313 312 315 318 322 325 327 330 331 332 333 334 334 334 335 335 335 335 335 335 335 334 334 334 334 334 334 334 332 331 328 327 327 327 328 324 321 323 322 323 325
312 313 314 315 316 315 316 315 314 315 315 314 315 316 316 316 315 317 317 319 328 340 347 347 346 346 347 347 346 347 346 346 346 346 346 346 344 343 342 341 341 340 338 338 337 337 337 336 336 336 335 334 332 330 327 321 314 312 314 317 320 323 326 328 329 331 334 334 334 334 334 334 334 334 334 334 334 333 332 332 332 331 331 330 327 324 319 316 317 321 322 319 319 322 322 323 323
311 313 315 315 315 314 314 314 314 314 313 314 314 315 317 317 316 317 318 316 321 339 349 347 346 345 347 348 347 347 346 347 346 345 346 346 346 345 343 341 340 339 338 338 337 337 337 336 336 336 335 334 333 332 329 323 316 312 312 315 318 320 323 325 326 330 333 334 335 334 334 334 333 333 332 332 331 330 329 327 327 326 326 326 322 317 312 310 312 316 317 317 320 322 321 323 323
312 313 315 315 314 313 313 313 314 313 313 314 314 316 315 315 316 316 318 316 320 340 350 347 346 346 347 347 347 347 347 348 346 346 347 347 346 346 345 343 340 339 338 338 337 337 337 336 336 336 336 334 334 333 331 326 318 313 312 313 315 318 321 323 326 330 332 333 334 334 334 334 333 333 332 331 330 328 326 324 322 321 320 320 317 313 310 309 310 313 315 318 322 322 321 323 324
315 314 313 314 313 312 312 312 313 313 313 313 314 315 315 315 315 315 317 316 326 343 350 347 347 347 348 348 347 347 347 348 346 346 348 347 347 347 346 344 341 339 337 337 337 338 338 337 336 336 335 335 334 333 332 327 320 315 311 311 313 314 318 322 326 329 331 332 332 333 334 333 333 333 332 331 329 327 324 321 319 316 314 313 312 311 310 309 309 310 314 320 323 321 322 324 325
315 315 313 314 313 312 312 312 313 314 314 314 315 315 315 316 314 316 315 316 332 347 349 347 346 346 347 347 347 346 347 348 347 347 348 348 347 348 347 346 343 339 337 337 336 337 338 337 336 336 335 335 334 333 332 328 322 316 312 311 311 312 315 321 328 330 331 332 331 332 333 333 333 332 331 329 328 326 323 319 316 313 312 312 311 310 309 309 308 309 315 321 323 322 322 323 325
314 314 313 313 313 312 312 312 313 315 316 315 315 315 316 316 314 317 315 318 335 343 346 346 344 346 346 347 346 346 347 348 348 347 347 348 347 347 346 345 342 338 337 337 336 337 337 336 335 335 335 334 333 333 331 328 322 317 313 310 310 312 314 322 329 331 333 333 331 331 332 332 332 330 330 329 327 326 323 319 315 313 313 312 311 309 309 309 309 309 314 321 322 323 323 323 324
314 314 314 313 311 312 312 312 313 313 315 315 315 314 315 319 320 319 315 320 335 340 344 345 343 346 347 346 346 345 346 347 348 348 348 347 346 345 344 343 340 338 337 336 336 337 336 334 334 334 334 333 333 332 331 328 322 318 314 309 310 311 314 324 329 330 332 331 330 330 330 329 327 327 328 328 327 326 323 319 316 314 314 313 311 309 308 308 309 309 313 320 323 323 324 325 325
314 314 314 314 311 311 312 312 313 312 314 314 315 313 315 329 335 326 317 322 338 343 345 345 343 345 347 347 346 346 346 347 347 347 347 345 344 343 343 342 340 339 338 336 337 337 335 333 334 334 333 333 333 331 330 326 321 318 313 309 310 310 318 327 328 328 327 326 328 330 330 329 327 326 326 326 325 325 324 321 318 315 314 314 311 309 307 308 308 310 314 319 323 324 324 325 326
315 314 313 314 312 311 312 312 313 312 315 314 314 314 314 335 342 330 318 326 343 346 347 346 344 342 344 347 346 345 346 346 346 345 345 343 343 342 341 341 340 340 338 338 338 336 333 333 333 333 333 332 332 330 327 323 319 316 311 309 309 310 320 326 323 321 322 322 326 329 329 328 327 325 324 324 323 322 323 321 319 316 315 315 312 309 307 308 308 309 313 319 323 324 325 325 326
315 315 314 314 312 311 312 312 313 312 315 314 314 314 312 331 345 337 327 335 347 348 347 347 344 342 343 346 344 346 346 345 345 344 343 343 342 341 341 340 340 339 338 339 337 334 333 333 332 332 332 331 329 327 324 321 318 314 310 309 310 311 316 318 316 318 322 323 322 323 323 322 321 319 319 321 320 319 321 320 320 318 315 316 314 311 308 308 308 308 312 319 323 323 324 325 326
316 316 315 314 312 312 312 313 313 312 315 314 314 314 312 331 347 344 340 344 349 347 347 347 344 343 344 345 345 346 346 344 343 343 342 342 342 341 340 340 339 339 338 338 337 334 333 332 331 330 329 327 325 322 320 319 316 312 310 309 310 312 312 312 314 318 323 323 318 317 318 317 316 315 316 317 318 319 319 319 320 318 317 317 316 314 310 308 308 308 310 317 322 323 324 326 327
316 315 314 314 312 312 312 313 313 312 314 315 315 313 312 332 347 344 345 347 348 347 347 347 345 345 345 345 346 346 344 343 343 342 342 341 341 340 340 340 339 338 337 337 337 334 331 329 328 326 325 322 320 319 318 317 314 312 310 310 312 313 312 311 313 315 318 318 316 315 316 317 317 317 315 316 317 317 318 319 320 320 318 317 318 317 313 309 308 308 308 314 321 324 325 327 328
317 315 315 315 313 312 312 312 313 313 314 314 315 313 316 336 346 345 345 345 346 346 346 346 346 346 345 346 346 345 343 343 342 341 341 340 340 340 339 339 338 338 337 336 335 331 327 325 323 321 320 318 319 318 316 315 313 313 311 312 314 314 312 312 313 313 314 315 315 317 319 322 322 322 319 317 318 318 318 319 319 320 320 319 319 319 317 313 309 308 308 312 320 324 326 328 329
316 315 316 315 313 313 315 315 315 315 314 313 314 313 325 343 344 345 346 344 345 346 347 346 346 345 345 346 346 344 343 342 342 342 341 340 339 339 339 338 337 337 336 335 333 328 323 321 319 318 318 318 318 316 315 314 313 313 312 313 315 315 314 314 314 314 315 317 320 324 328 329 330 330 328 327 328 328 327 325 323 321 320 321 321 320 320 318 313 309 308 311 320 325 328 330 331
315 315 317 316 313 314 317 316 316 315 313 313 313 312 328 344 344 346 346 344 345 346 347 346 345 345 344 346 345 344 343 342 342 342 342 341 340 338 338 337 337 336 334 332 329 324 320 319 319 318 318 317 316 314 314 314 314 315 317 318 318 318 317 317 317 318 320 325 329 332 334 334 334 334 334 334 334 334 334 333 331 327 322 320 321 322 322 321 319 313 308 310 319 326 329 331 331
315 315 314 316 315 316 317 316 315 315 313 313 314 312 325 342 347 346 346 346 346 345 345 345 345 345 345 346 345 344 343 343 343 342 342 342 341 339 338 337 336 334 332 328 322 319 319 318 318 317 316 316 316 316 316 318 320 322 323 324 323 323 321 320 322 325 327 330 333 334 335 334 334 334 334 335 334 334 335 334 334 333 329 324 321 321 323 323 322 318 312 310 318 326 328 330 331
315 315 314 316 315 315 316 316 315 315 315 312 314 313 319 338 346 345 347 348 347 345 344 344 345 346 346 346 345 344 343 343 343 343 343 342 342 341 339 337 334 331 327 323 318 318 319 318 317 316 317 319 320 322 323 325 327 327 328 328 327 326 323 322 325 329 331 332 334 334 335 335 334 334 334 334 334 334 334 333 333 334 334 332 327 323 322 324 324 323 317 312 316 324 327 329 330
315 315 315 316 315 315 316 316 315 315 313 312 321 325 327 340 345 345 348 347 347 346 345 345 345 345 345 345 344 344 343 344 343 343 343 342 342 341 340 337 332 329 325 320 318 318 318 317 318 320 323 325 325 326 327 329 331 331 331 332 332 330 328 327 329 331 332 333 334 335 335 335 334 334 334 334 333 333 333 333 333 333 334 334 332 328 323 322 323 324 323 317 315 320 326 327 328
315 315 316 316 316 316 315 315 314 314 312 317 336 343 341 345 345 345 347 347 347 346 345 345 345 345 344 344 344 344 343 343 343 343 344 344 343 341 339 336 332 329 324 320 319 319 318 319 322 325 327 328 328 328 329 331 332 333 334 334 335 334 333 333 334 334 334 334 334 335 334 334 334 335 335 334 333 333 332 332 333 333 333 332 333 333 328 324 323 323 324 323 319 317 321 325 327
314 315 316 315 316 314 313 313 312 314 312 319 342 345 341 344 343 345 347 347 346 345 345 345 345 345 344 344 343 343 343 343 344 344 344 343 342 341 338 335 332 327 323 321 320 319 320 322 326 328 328 329 330 330 330 332 332 334 335 335 335 335 335 335 334 334 334 334 334 334 334 334 334 334 334 334 333 332 331 331 332 332 333 333 333 332 332 330 328 326 324 324 323 321 320 321 324
311 313 313 313 313 312 312 312 312 313 311 321 342 342 336 339 343 347 347 346 345 345 345 344 344 343 343 344 343 343 343 343 344 344 344 343 340 340 337 334 330 327 325 322 320 320 322 324 327 329 331 332 333 332 332 333 334 334 335 335 335 335 334 334 334 334 334 334 333 334 334 334 334 334 333 333 332 332 331 331 331 331 332 332 332 332 332 332 332 331 329 326 324 323 323 322 323
310 310 311 312 312 312 313 311 313 312 313 329 342 338 335 338 343 346 346 345 345 344 341 339 338 338 339 340 341 343 342 342 343 343 344 341 340 339 337 333 331 331 328 323 321 321 324 326 329 333 335 335 336 335 335 335 335 334 334 334 334 334 334 333 333 333 334 333 333 334 335 334 334 334 334 333 332 330 330 330 331 331 331 330 331 332 332 332 331 332 333 332 329 326 324 323 323
310 310 311 313 312 314 313 310 312 311 317 335 337 331 333 337 341 344 345 345 344 340 336 334 335 337 337 336 336 338 339 340 341 343 343 340 339 338 336 335 333 334 330 323 322 323 328 333 335 337 337 336 336 336 335 335 335 334 334 333 332 333 333 332 333 333 333 334 334 335 335 334 333 333 333 333 331 328 328 329 330 330 330 330 330 331 332 331 331 331 332 332 332 331 328 326 325
311 310 311 312 312 314 312 310 312 312 322 332 328 324 331 337 341 341 342 343 341 336 334 334 335 337 337 335 335 335 335 337 339 342 343 341 340 338 337 337 336 336 334 331 329 329 334 337 338 337 337 337 336 335 335 335 334 333 332 332 332 332 332 332 333 334 334 335 335 335 334 334 333 332 332 332 329 327 328 328 329 329 329 330 330 330 331 331 331 332 331 331 331 331 331 330 329
311 312 312 311 311 313 312 311 311 314 323 325 319 321 330 337 340 339 339 339 337 335 335 335 336 335 335 335 334 335 336 337 340 342 342 341 341 340 339 338 339 339 339 339 337 336 338 339 338 337 337 337 335 334 335 334 333 332 332 332 332 332 332 333 334 335 335 335 335 335 334 334 334 333 332 332 330 328 329 329 330 330 330 329 329 330 330 331 331 331 331 331 330 331 331 331 331
310 312 314 311 311 312 312 311 310 314 324 324 320 324 333 339 340 337 335 335 335 334 334 335 336 335 334 335 335 336 337 339 340 341 342 341 341 341 340 339 340 340 341 341 340 339 339 339 338 338 337 336 335 334 334 333 332 332 332 333 333 333 334 334 335 335 335 335 335 335 335 335 335 335 334 333 331 330 329 330 330 330 329 329 329 330 330 330 330 331 331 331 331 331 331 331 331
311 311 313 311 311 311 312 312 311 316 325 326 326 333 338 338 337 334 333 334 332 330 331 334 335 334 333 334 336 337 338 339 339 340 341 341 341 340 340 340 340 340 340 340 339 340 340 339 338 337 336 335 334 333 333 332 331 331 332 333 334 335 335 335 335 336 335 335 335 335 335 335 335 334 334 334 332 330 330 330 330 330 329 329 329 330 330 331 330 330 330 330 330 330 330 331 331
312 312 312 311 310 311 311 312 314 319 326 327 330 337 336 333 332 332 334 335 332 328 331 334 334 334 333 333 336 338 339 339 339 339 340 341 340 339 338 339 339 340 340 339 339 339 338 337 336 335 335 334 333 332 332 332 332 332 333 334 335 335 336 335 335 336 335 335 336 335 334 334 334 334 334 334 332 331 330 330 329 329 329 330 330 330 330 331 331 331 331 331 331 331 331 331 331
311 312 313 312 311 311 310 312 318 324 328 329 332 337 335 332 330 332 334 334 333 330 332 335 335 335 335 336 338 338 338 339 340 339 339 341 340 338 338 338 338 339 339 338 338 337 336 335 334 334 333 334 333 332 332 332 333 333 334 335 335 335 336 335 335 335 335 336 335 334 333 333 333 333 333 332 331 331 330 330 330 330 330 330 330 330 330 330 331 331 331 331 331 331 331 330 331
311 311 312 311 311 312 312 317 324 326 330 332 334 335 334 331 329 331 333 334 334 334 335 336 336 336 337 338 338 338 338 339 339 339 339 339 339 338 338 338 338 338 338 338 337 337 335 334 334 333 333 334 333 334 334 335 335 335 335 336 336 336 337 337 336 335 335 335 334 333 333 333 333 333 332 332 331 331 331 331 331 331 331 331 331 330 330 330 331 331 330 330 330 330 330 330 330
310 311 311 311 310 312 317 325 328 327 330 334 335 334 333 332 329 331 333 334 335 335 336 336 334 334 334 336 337 337 337 338 339 339 338 339 340 339 338 338 339 339 339 338 336 336 335 335 335 335 335 335 335 335 336 335 334 334 335 335 336 336 336 336 336 335 334 334 333 332 332 333 333 333 333 332 332 332 331 331 331 331 331 331 331 331 331 330 330 330 330 329 329 329 330 329 329
310 311 311 311 310 310 317 329 330 327 332 334 334 334 333 332 330 331 333 333 333 333 334 332 331 330 330 331 332 332 334 337 338 337 338 338 339 339 337 337 337 338 338 336 336 336 336 336 336 335 335 335 335 334 334 333 333 333 333 334 334 335 335 334 334 334 333 333 333 332 332 332 332 332 332 331 331 331 331 331 331 331 331 330 330 330 330 330 330 329 329 329 329 329 329 329 329
310 310 310 311 310 308 316 330 331 329 332 332 333 334 334 333 331 331 331 332 332 331 330 329 329 330 329 327 328 330 331 333 335 337 338 338 337 337 337 336 335 337 337 335 336 337 336 336 335 334 333 333 333 332 332 331 332 332 333 334 334 334 334 334 333 333 332 332 331 330 331 331 330 330 330 329 329 329 330 330 330 330 329 328 328 329 330 329 329 329 328 328 328 328 329 328 328
310 310 310 310 311 313 321 329 331 330 330 331 332 334 335 334 334 332 331 331 332 331 330 329 330 331 330 328 329 333 333 331 331 334 337 336 335 336 337 336 335 336 336 335 336 336 335 335 335 334 333 333 332 331 331 331 331 332 332 333 333 333 334 333 332 331 331 330 329 328 329 328 328 328 328 327 327 327 327 327 327 327 328 327 327 328 329 329 329 329 328 328 328 328 328 327 327
310 310 309 309 316 325 329 329 329 329 330 330 328 332 336 335 335 334 331 331 332 331 331 331 331 331 329 328 330 333 334 333 332 332 335 335 333 336 337 336 334 335 334 334 334 333 334 335 334 334 333 333 333 332 332 332 332 331 331 331 331 331 331 330 330 330 330 329 328 328 328 328 327 327 327 326 326 326 326 326 326 326 326 326 326 326 326 327 327 327 327 327 327 327 327 327 327
311 309 308 315 324 330 331 327 322 322 328 330 327 330 336 335 335 334 332 333 331 331 332 331 330 329 329 329 329 331 332 333 334 333 334 334 333 334 335 335 334 334 334 334 333 332 334 335 334 334 334 333 333 333 332 332 332 331 330 330 329 330 330 329 329 329 329 328 328 329 328 327 327 327 326 326 325 326 326 326 326 325 325 324 324 324 324 325 325 326 326 326 326 327 328 328 328
311 308 311 321 327 328 328 323 320 324 328 331 329 328 333 333 334 334 332 333 331 331 331 330 330 328 328 328 329 331 332 333 334 333 333 334 333 333 334 334 334 334 333 333 333 334 335 335 334 334 333 333 332 332 332 331 331 330 329 329 328 329 329 329 328 328 328 328 328 328 327 327 326 326 326 325 325 326 326 326 325 325 324 324 324 324 324 324 325 325 324 323 324 325 326 327 328
310 307 312 320 322 324 325 320 321 327 327 330 331 328 329 332 334 333 332 333 334 332 330 329 330 328 329 328 328 331 331 331 333 333 334 334 333 333 333 333 334 333 332 332 333 334 334 333 333 333 331 330 330 330 330 330 330 329 329 328 328 328 328 328 328 328 328 328 327 327 327 326 326 325 325 324 325 325 325 325 324 324 323 323 323 323 324 323 322 322 321 321 321 322 323 324 325
308 307 310 314 316 320 321 318 321 322 319 324 331 328 327 332 334 334 334 334 334 332 329 329 330 329 329 328 328 329 329 329 331 332 334 333 332 333 333 332 333 333 332 333 333 332 331 331 331 331 330 329 329 329 329 329 329 328 328 328 327 327 327 327 327 327 327 327 326 326 325 324 324 324 323 323 323 323 323 323 323 322 321 320 320 320 320 319 318 317 317 317 318 318 320 321 322
308 308 309 310 312 314 315 318 319 316 314 320 328 329 326 330 334 334 334 334 332 331 330 329 329 328 328 327 327 327 328 329 331 331 331 332 331 331 331 331 332 332 331 332 332 330 330 330 329 329 328 328 328 328 328 328 327 327 327 326 326 325 325 325 325 325 325 324 324 323 322 322 321 320 320 320 320 320 320 320 319 318 318 317 315 315 315 315 314 314 314 314 315 315 316 317 318
308 310 310 310 312 312 313 316 315 313 314 317 325 328 323 325 332 332 331 332 330 330 329 328 328 327 326 326 326 325 325 327 330 331 329 330 330 329 329 329 329 329 328 328 329 328 328 328 327 327 327 327 327 327 326 326 325 325 325 324 323 323 323 323 323 323 322 322 321 320 319 318 317 316 316 315 315 315 315 314 314 314 314 313 313 312 312 312 312 312 312 312 312 313 313 313 314
310 310 310 311 312 311 311 313 313 313 315 315 320 327 323 321 328 330 329 330 330 330 330 328 327 327 325 325 324 324 324 326 329 329 328 329 329 327 326 326 326 326 325 325 325 325 325 324 325 326 327 326 325 325 324 323 323 323 322 321 321 321 320 320 320 319 319 319 317 316 315 314 314 313 313 313 312 312 312 312 312 312 312 312 311 311 311 311 311 311 311 312 312 312 312 312 312
310 310 311 312 312 312 312 312 312 313 315 315 318 325 325 322 325 327 328 330 330 331 331 329 327 326 325 324 324 323 324 326 327 326 327 328 327 325 324 324 323 323 323 323 323 323 323 322 323 325 325 324 323 322 321 321 321 320 320 319 318 318 318 317 316 316 316 315 314 314 313 313 312 312 311 311 311 311 311 311 311 311 311 311 311 311 311 311 311 311 311 311 311 311 312 312 312
309 310 310 312 312 312 311 311 312 315 318 319 321 325 326 326 325 324 327 329 331 331 330 328 326 325 324 324 324 324 323 325 326 326 326 326 325 323 323 322 322 322 321 321 321 321 321 321 322 323 323 321 321 320 319 319 319 318 318 317 316 316 316 314 314 314 313 313 313 312 312 311 311 311 311 310 310 311 310 310 311 310 310 311 311 311 311 311 311 311 311 310 311 310 311 311 311
309 308 309 311 312 314 313 312 314 318 319 321 324 325 326 327 326 324 327 330 330 330 328 326 325 324 324 324 323 323 323 324 325 325 325 324 323 322 322 321 321 321 320 320 320 320 320 320 320 320 320 320 319 318 317 316 316 316 316 315 314 314 313 313 312 312 312 312 311 311 310 311 310 310 310 310 310 310 310 310 310 310 310 310 310 310 309 309 309 309 309 309 309 309 309 310 310
309 308 310 310 311 315 315 313 313 315 316 319 324 326 326 327 328 328 329 330 329 328 326 326 325 323 324 323 323 322 322 322 323 324 324 323 322 321 320 320 320 320 320 319 319 319 318 318 318 318 318 318 317 316 315 314 314 314 314 313 312 312 311 311 311 311 311 311 310 310 310 310 310 310 309 309 309 309 309 309 309 308 308 308 307 307 307 306 306 306 306 306 306 307 307 307 308
309 309 310 310 310 313 315 314 314 313 313 319 323 327 328 329 331 331 330 330 329 327 325 325 324 323 323 323 322 322 322 323 323 323 322 321 321 320 320 319 319 319 319 318 318 318 317 317 317 317 316 315 315 314 313 312 312 312 312 311 311 310 310 310 310 310 310 310 310 310 310 309 309 309 308 308 308 308 307 307 306 306 305 305 304 304 304 303 303 303 303 303 303 304 304 304 305
310 310 310 311 311 312 313 313 315 314 315 321 324 325 327 328 331 333 332 331 330 327 325 324 323 323 323 322 321 321 321 322 322 321 320 321 320 320 319 319 318 318 318 318 318 317 317 316 316 316 315 314 313 312 311 311 310 310 310 310 309 309 309 309 310 310 309 309 309 309 308 308 307 307 306 306 306 305 304 304 303 302 302 301 301 301 300 300 300 300 300 300 300 301 301 302 302
309 310 310 311 312 312 313 313 314 314 317 322 325 325 325 325 328 331 331 329 329 328 326 325 324 323 323 322 321 320 320 320 319 319 320 320 320 318 318 318 318 318 318 318 318 317 316 315 315 315 314 313 312 311 310 310 310 309 309 309 309 309 309 309 308 308 308 308 307 307 306 305 305 304 304 303 302 302 301 300 300 299 299 298 298 298 298 298 297 298 298 298 298 298 299 299 300
309 311 310 311 311 311 312 313 313 314 317 319 323 325 325 323 325 329 330 328 327 328 326 324 323 323 323 321 320 319 319 319 318 319 320 320 319 318 317 317 317 318 318 318 317 316 316 315 314 314 313 312 311 310 310 309 309 309 308 308 308 308 307 307 307 307 306 306 305 304 304 303 302 301 300 300 299 298 298 297 297 297 297 296 296 296 296 296 296 296 296 296 296 297 297 298 298
310 312 311 311 312 311 311 312 313 315 317 318 319 320 322 323 322 326 329 329 327 327 325 324 323 322 321 320 319 320 319 319 319 319 319 319 318 317 317 317 318 318 318 317 316 315 315 314 313 313 312 311 310 309 309 308 308 307 307 307 307 306 306 306 305 305 304 304 303 302 301 300 299 299 298 297 297 296 296 296 296 296 296 296 296 296 296 296 295 295 295 295 295 296 296 296 297
Wind_Speed
11 10 8 6 4 3 3 3 1 1 1 2 1 1 2 2 2 2 1 4 3 2 3 2 6 9 7 3 6 6 4 4 2 2 1 3 12 19 24 23 24 27 27 26 24 23 20 17 14 12 10 9 9 9 9 10 10 10 11 12 13 13 14 15 15 15 15 15 15 14 14 13 13 13 13 13 13 13 13 13 13 12 12 11 10 10 9 9 9 9 9 9 8 8 7 7 7
10 10 7 5 3 2 1 3 1 1 1 4 2 2 2 1 5 4 0 3 0 5 7 10 11 9 8 9 9 6 4 2 2 3 6 12 20 23 24 23 24 26 26 25 24 22 21 17 14 12 10 9 9 10 10 10 10 10 11 11 11 13 14 14 14 14 14 14 13 13 13 13 12 12 13 13 13 13 12 12 12 11 11 11 10 10 9 8 7 7 8 7 6 6 5 5 6
10 9 6 3 0 2 4 2 2 2 3 6 3 2 1 4 8 3 3 1 8 8 5 6 7 6 5 7 5 2 2 2 4 8 13 19 23 25 24 23 25 26 26 25 24 23 21 18 15 12 11 9 9 10 10 10 10 11 11 11 11 12 13 13 13 13 13 13 12 12 13 12 12 12 13 13 12 12 12 11 11 10 10 10 10 9 9 7 6 7 6 5 4 4 4 4 5
9 7 5 3 3 3 4 0 1 3 5 4 3 3 3 7 7 2 2 7 11 4 2 2 3 4 1 3 3 3 4 3 6 11 18 20 21 26 27 26 27 26 26 25 24 23 21 19 16 13 11 10 9 9 10 10 10 11 11 11 11 12 12 13 13 13 13 12 12 12 12 12 12 12 12 12 11 11 11 10 10 9 9 9 9 8 8 7 6 6 5 4 3 2 3 3 4
5 4 4 5 3 2 2 0 1 3 6 3 3 2 4 6 2 1 5 9 4 2 4 5 2 4 4 4 2 3 5 6 8 12 17 20 23 27 28 27 27 27 26 25 24 23 21 19 17 15 12 10 9 9 10 9 10 11 11 10 10 11 12 12 12 13 12 12 12 12 12 11 11 11 11 11 10 10 10 10 9 9 9 8 8 7 6 6 5 4 3 4 2 2 2 3 5
2 2 3 5 4 3 3 2 3 4 4 3 4 2 2 4 2 2 4 5 1 2 6 4 4 4 5 5 4 6 7 7 9 12 16 21 25 26 27 27 26 26 25 25 24 22 21 20 18 16 13 11 9 9 9 9 9 10 11 10 10 11 11 11 12 13 12 12 12 12 12 11 10 10 10 10 10 9 9 9 8 8 8 7 6 5 4 3 2 1 2 3 2 2 2 5 7
3 3 3 5 4 2 2 4 5 4 2 3 3 2 1 2 2 0 1 2 3 4 4 6 9 6 5 4 6 6 3 7 11 14 18 22 25 24 25 25 24 24 24 24 23 23 21 20 18 16 13 11 10 9 8 8 9 10 11 10 10 10 11 11 12 13 13 12 11 11 11 11 10 10 10 9 9 8 8 8 7 7 6 5 4 3 2 1 1 0 1 1 2 2 4 8 9
4 4 2 3 1 1 2 3 4 3 1 2 3 4 4 2 2 3 2 2 1 1 5 9 10 6 3 2 4 3 4 11 14 19 21 22 25 22 23 24 23 22 23 24 23 22 21 20 18 16 14 12 10 9 8 8 9 10 11 10 10 10 10 11 12 13 13 12 12 10 10 10 10 10 10 9 9 8 8 7 7 6 4 3 3 2 1 1 1 1 1 3 3 3 7 9 10
6 4 3 2 1 1 1 2 3 3 3 3 3 9 9 4 4 5 5 2 1 3 8 8 6 4 4 4 5 4 8 12 15 22 23 22 24 22 22 23 23 22 23 23 22 22 21 19 17 16 14 12 11 9 8 8 9 9 10 10 9 9 10 10 10 12 13 12 12 11 9 9 9 9 9 9 8 8 7 6 6 5 4 3 2 1 1 2 3 3 3 5 4 4 8 10 10
6 4 3 1 2 2 3 3 2 2 4 4 6 12 11 7 7 7 9 5 3 7 9 7 4 6 8 6 6 6 8 11 16 22 21 22 22 21 21 22 23 22 23 23 22 21 20 20 17 16 14 13 11 9 8 7 8 9 9 9 9 8 9 9 9 11 12 11 12 11 9 8 7 7 7 7 7 7 6 6 5 5 5 3 2 1 1 3 4 4 5 6 4 5 9 10 10
4 3 3 2 3 4 5 4 4 3 3 4 8 13 13 13 10 7 9 6 4 9 10 8 6 12 11 6 7 8 9 10 18 22 19 20 21 20 20 21 22 21 22 23 22 21 19 19 17 16 14 13 11 9 8 7 8 8 9 9 8 8 8 9 9 10 11 10 10 9 8 7 6 7 6 6 6 6 6 6 6 5 5 3 2 1 1 3 4 5 7 6 4 5 8 10 10
4 2 3 3 4 4 3 3 4 4 4 4 6 6 7 9 8 7 11 9 8 11 13 12 11 16 10 6 7 8 10 12 18 21 19 19 20 20 18 19 20 21 22 22 22 21 18 18 17 15 14 12 11 9 8 7 7 8 8 8 8 7 8 9 9 9 9 9 8 7 7 6 6 6 5 5 5 5 6 6 6 6 5 4 3 2 1 2 4 5 7 7 4 4 7 9 10
5 2 3 2 1 2 2 1 2 3 3 4 4 3 2 4 9 11 11 11 12 11 13 16 18 16 7 7 9 9 12 15 18 20 20 20 19 18 16 18 19 20 22 21 21 20 18 18 18 16 14 12 11 10 8 7 7 8 8 8 8 8 8 10 9 9 9 8 7 7 6 5 4 5 5 4 4 5 5 6 6 6 5 5 4 2 1 2 3 5 7 7 4 3 5 8 9
8 5 5 2 0 1 2 2 2 2 4 2 4 1 5 4 9 12 8 10 14 12 12 19 24 14 8 9 8 13 16 17 19 20 22 20 18 17 16 18 18 19 20 20 20 18 18 18 18 17 15 14 12 11 10 8 7 8 9 8 8 8 8 10 10 9 9 8 7 6 5 3 3 3 3 3 3 4 5 5 6 6 5 5 5 3 2 2 3 5 6 7 5 3 3 5 7
9 8 3 2 2 2 3 3 1 4 3 2 4 3 8 4 5 10 13 13 12 12 13 20 23 9 9 13 10 21 21 20 22 21 23 20 18 17 16 17 17 18 18 18 18 17 18 18 18 17 15 14 13 11 10 10 9 9 9 8 8 9 9 9 10 9 8 7 6 5 4 3 3 2 2 2 2 3 4 4 5 5 5 5 5 4 2 2 3 5 6 7 6 3 2 3 5
10 7 1 2 3 2 4 4 2 3 2 3 3 6 8 3 2 6 15 14 10 16 14 17 20 6 11 17 16 29 26 23 24 21 22 19 17 17 16 16 16 17 17 17 17 17 17 17 17 16 15 14 13 12 11 10 9 9 8 8 8 9 9 9 9 8 7 6 6 5 4 3 3 3 2 2 2 2 3 4 4 4 4 4 5 5 3 2 3 5 7 7 6 4 2 2 3
10 5 2 3 4 4 5 5 5 1 1 3 2 6 8 3 1 2 10 12 14 18 13 15 17 7 14 17 19 33 28 24 24 21 21 18 18 17 17 17 16 17 16 17 16 17 17 16 17 16 15 14 13 12 11 10 8 8 8 8 9 8 8 7 7 7 6 5 5 4 3 2 2 3 3 3 3 3 3 3 4 3 3 4 5 5 4 3 3 5 7 7 7 5 3 1 1
9 3 4 5 4 5 4 6 5 1 2 3 3 7 7 3 3 7 9 11 15 16 11 13 13 9 17 15 21 33 26 24 23 21 21 18 20 19 19 18 17 17 16 16 15 16 17 17 17 15 15 14 13 12 10 9 8 8 8 8 8 7 7 6 6 6 6 5 5 4 3 2 3 3 3 4 5 4 4 3 4 3 3 3 4 4 4 3 2 5 7 8 8 7 5 3 1
7 1 3 5 4 3 3 5 3 3 5 8 8 10 7 5 7 10 9 12 18 15 10 11 11 12 17 16 25 32 25 25 22 21 21 19 21 21 20 19 18 17 16 16 14 15 17 17 16 15 14 13 12 10 9 9 8 8 7 7 6 6 6 6 5 5 5 5 5 5 4 4 4 4 5 6 6 5 5 4 3 3 3 2 3 3 4 3 2 3 7 9 10 9 7 5 3
5 3 5 5 4 3 5 8 7 9 10 10 8 10 6 6 8 9 9 13 16 14 15 15 16 18 18 22 30 29 24 24 22 20 20 19 20 20 21 19 19 17 16 16 15 16 16 16 15 14 13 11 10 10 9 9 8 8 7 6 6 6 6 6 6 6 6 6 7 6 5 5 5 5 5 7 7 6 6 5 3 2 2 2 2 2 3 3 2 2 6 10 11 10 8 6 4
4 5 4 1 5 5 8 11 13 13 11 6 5 10 3 7 5 8 12 13 11 12 16 16 23 28 25 28 29 27 25 23 21 19 18 18 19 19 19 18 18 16 15 15 14 15 16 15 14 13 12 11 10 9 9 9 8 8 8 8 8 8 8 7 8 8 8 8 8 7 6 5 5 4 5 5 5 5 5 5 4 3 2 1 1 1 1 2 2 1 5 10 12 12 10 7 5
4 4 3 2 5 5 7 9 10 8 7 5 4 7 2 7 5 12 15 7 3 8 12 12 23 31 32 34 30 28 26 23 21 18 17 17 17 17 17 17 16 15 15 15 15 15 16 15 13 12 11 11 10 9 10 10 10 10 10 10 9 9 9 9 9 9 9 8 8 7 7 7 5 4 4 4 3 3 3 3 3 3 2 2 1 0 1 1 1 0 3 9 13 13 12 9 6
5 3 2 7 8 7 8 8 7 8 8 6 4 3 4 7 5 14 12 3 4 4 11 12 17 23 28 32 30 29 25 22 21 18 17 16 16 16 17 17 16 16 15 15 16 16 15 14 12 12 11 11 10 11 11 12 12 11 11 10 9 8 8 9 9 8 8 7 7 7 6 5 5 3 3 3 2 2 2 2 2 2 2 1 1 2 1 1 0 0 2 8 14 15 13 11 9
7 4 2 7 10 10 12 12 12 14 13 10 6 5 8 10 8 11 6 3 2 3 10 14 16 19 23 26 27 27 24 21 19 17 16 15 16 17 16 16 16 16 16 16 17 16 15 13 12 12 12 11 11 12 12 12 11 11 10 10 9 8 8 8 8 7 6 6 5 5 4 4 4 3 2 2 2 2 2 2 2 2 2 2 1 1 3 2 2 2 2 5 12 15 15 13 12
7 6 2 5 8 11 14 15 15 17 15 11 5 3 7 9 11 10 4 3 4 4 10 15 18 20 22 24 26 24 21 19 18 16 16 15 17 17 16 16 16 16 16 17 16 15 15 14 13 13 12 11 11 11 11 11 11 10 10 9 8 8 8 7 6 5 4 4 4 4 4 4 4 4 3 3 3 3 3 2 2 2 2 2 3 2 2 3 3 4 3 4 9 14 16 15 15
6 8 5 6 8 11 13 13 14 14 10 4 2 3 4 9 11 7 3 5 6 8 14 17 19 20 20 22 23 22 21 20 19 20 19 17 17 16 16 17 17 16 16 17 16 15 15 14 14 13 12 11 11 11 11 11 10 9 8 7 7 6 7 6 5 4 2 2 3 4 4 4 4 4 4 4 4 3 3 2 2 2 2 3 2 3 3 2 3 4 5 6 7 11 15 17 17
5 9 9 11 11 12 12 10 12 10 6 5 6 5 5 8 6 3 5 8 10 13 17 19 20 19 18 19 20 21 22 23 22 21 20 17 16 16 16 18 18 16 16 16 15 16 15 15 14 13 12 11 11 11 11 10 8 8 7 6 6 5 5 5 4 3 2 2 3 3 3 3 3 4 4 5 4 4 4 3 3 2 2 3 3 3 4 4 4 4 5 8 9 10 12 16 18
3 7 6 9 9 12 12 10 12 9 5 6 11 8 3 3 1 4 10 11 13 18 20 20 20 16 14 16 19 22 22 22 21 20 18 15 15 15 17 19 19 16 16 15 15 15 15 15 14 12 11 10 10 10 9 8 8 7 7 6 5 4 4 4 3 3 2 1 2 2 3 4 4 5 5 5 4 3 4 4 4 3 3 4 3 3 4 4 5 5 5 7 9 11 12 14 17
2 4 3 4 3 9 11 7 8 6 3 11 15 7 2 3 4 8 13 14 17 21 23 22 21 19 16 14 13 18 20 19 19 19 15 12 12 13 16 18 17 15 15 15 15 15 15 14 13 12 10 10 9 9 8 7 7 7 6 5 4 4 4 3 3 2 1 1 1 2 3 4 4 5 5 5 3 3 4 4 4 4 4 4 4 4 4 5 5 6 7 7 7 9 12 14 17
3 3 2 2 2 6 6 3 4 4 5 16 13 3 4 3 4 9 12 17 21 22 24 23 22 21 18 12 10 8 10 14 16 16 13 10 10 12 14 15 15 15 15 16 16 15 15 13 12 11 10 9 8 8 7 6 6 6 5 4 3 3 3 3 3 2 1 0 1 2 3 3 4 5 5 3 2 2 3 4 4 4 4 4 4 4 4 5 5 6 7 8 9 9 10 12 15
3 3 1 1 3 4 1 1 6 5 5 12 7 2 4 4 5 8 8 18 22 21 24 23 22 24 20 14 12 10 6 9 12 13 12 10 9 10 12 13 13 13 14 15 15 15 14 12 12 11 9 9 8 8 7 6 5 5 5 4 3 3 3 3 3 2 1 1 1 1 1 2 3 5 5 4 1 1 3 4 4 4 4 4 4 5 5 6 6 7 8 8 9 10 11 13 14
1 3 3 1 3 3 2 2 2 2 5 4 2 2 4 4 8 9 10 17 21 20 24 25 23 24 22 18 15 11 6 8 10 11 11 10 9 9 11 12 13 13 13 14 14 14 13 12 12 10 9 8 7 7 7 6 5 5 5 5 4 4 4 4 3 2 2 2 2 1 1 2 4 5 6 5 3 3 3 3 3 4 5 5 6 6 7 7 8 8 9 10 10 11 12 14 15
1 3 3 2 4 3 1 2 4 3 6 3 3 2 3 5 11 14 14 16 17 14 13 19 22 24 25 20 16 14 9 7 8 11 13 13 12 11 11 12 12 13 13 12 12 13 12 11 11 10 9 8 8 7 7 6 6 6 6 6 5 4 4 3 3 3 4 4 2 2 2 3 3 4 5 5 4 4 4 5 4 5 7 8 8 9 9 9 10 10 11 12 13 13 13 14 15
4 3 2 2 3 2 1 3 6 6 4 4 3 5 7 8 12 16 16 16 17 15 11 10 16 23 25 20 15 14 12 10 10 11 14 15 13 13 14 14 13 13 14 13 12 13 12 11 11 11 10 9 8 7 7 7 6 7 6 6 5 4 4 3 2 2 3 4 5 5 5 4 4 4 5 5 4 3 4 4 5 7 8 9 9 9 10 10 10 11 12 13 14 15 16 16 17
6 6 5 2 3 2 0 2 4 6 5 5 7 10 9 10 11 13 17 19 22 20 14 11 13 19 22 20 17 16 16 16 15 14 15 16 14 13 15 16 17 16 16 15 14 14 13 13 12 11 10 9 8 7 7 7 6 6 6 5 5 4 3 2 2 4 4 5 6 6 6 6 5 5 5 4 4 4 4 5 6 7 8 9 9 9 8 9 10 11 12 13 14 16 17 18 19
7 7 5 2 4 2 2 3 4 3 8 9 8 11 9 9 9 8 12 17 20 21 19 18 16 15 14 14 15 16 19 19 17 16 16 17 15 13 14 16 17 18 17 16 16 15 13 13 11 10 10 9 7 7 6 6 5 5 4 3 2 2 1 2 3 4 5 4 5 6 6 6 6 6 6 5 5 5 5 6 6 7 7 8 8 8 8 9 10 11 13 14 15 16 17 19 19
5 6 3 1 3 3 4 3 4 2 5 8 10 12 10 8 7 5 8 11 16 17 17 17 16 14 11 12 13 16 18 18 18 18 16 17 16 15 15 15 16 17 16 15 16 15 13 12 11 10 9 9 7 7 6 5 4 3 2 2 2 2 2 2 1 2 4 5 5 6 7 7 8 8 8 8 8 8 9 9 9 8 9 9 9 10 10 11 12 13 14 15 15 16 16 17 17
4 4 4 2 2 4 4 4 5 0 4 7 11 13 10 7 6 5 6 8 12 14 15 15 14 12 7 10 15 16 16 18 17 16 15 17 18 17 17 17 17 18 16 15 14 14 13 12 11 11 11 10 9 7 6 5 4 3 2 2 1 1 1 1 1 4 5 5 5 6 7 8 9 10 10 10 10 11 11 12 12 12 12 12 12 12 13 13 13 14 15 15 15 14 13 14 15
3 2 3 3 1 4 5 6 6 3 5 7 11 13 10 8 6 4 4 8 12 11 14 17 16 15 11 9 15 15 17 20 17 14 14 16 17 15 15 16 16 16 15 13 12 13 13 13 13 12 12 10 8 6 4 3 3 3 3 4 3 2 2 3 3 4 4 4 4 5 6 6 7 8 9 9 9 10 11 12 12 12 13 13 13 13 13 12 13 14 15 15 14 13 13 13 13
2 2 3 3 2 1 2 7 9 7 6 11 14 13 8 7 7 5 5 10 14 14 18 20 19 17 11 12 15 13 14 17 16 17 17 15 14 13 13 13 12 14 14 12 13 14 14 14 13 11 10 8 6 5 4 4 4 3 4 5 5 4 4 5 4 3 4 5 7 7 7 7 8 8 9 10 10 10 11 12 12 13 13 14 14 13 12 12 12 13 13 13 14 13 14 14 13
1 2 3 3 3 1 2 7 10 11 11 13 13 10 5 4 6 6 5 10 14 15 19 19 18 20 18 17 18 14 11 11 13 17 19 16 14 15 19 17 14 15 15 13 13 13 12 11 11 9 7 5 4 5 5 6 5 4 3 3 3 3 3 3 2 4 6 7 9 10 10 12 12 12 13 14 14 14 14 14 14 15 14 14 13 11 10 10 10 10 11 12 13 13 15 16 15
3 3 3 4 5 6 7 8 6 6 7 7 4 4 3 3 6 7 6 8 11 13 18 19 18 22 24 21 19 17 14 13 13 14 19 19 15 16 20 17 15 14 13 13 12 9 8 9 10 8 4 3 3 4 6 7 7 5 2 1 2 1 2 2 4 5 7 8 10 11 12 14 14 14 14 15 17 17 16 15 16 17 16 16 17 15 12 11 11 11 11 11 11 13 15 16 16
3 3 5 5 6 9 9 6 2 2 4 4 1 0 4 4 5 7 7 9 10 11 14 17 19 23 24 22 20 19 17 17 17 12 13 16 14 14 14 12 13 15 14 14 13 9 8 9 8 6 4 3 2 4 6 7 8 7 5 2 1 2 3 4 5 6 8 9 9 10 12 14 14 14 15 16 17 17 16 15 16 18 19 18 19 18 16 16 17 16 14 12 11 11 12 14 16
3 3 8 9 6 8 8 4 3 2 4 4 1 1 4 5 6 8 9 11 11 10 11 14 18 21 21 22 24 24 22 21 21 18 17 18 14 15 17 15 13 13 12 12 13 12 11 10 8 4 2 1 3 5 8 9 8 7 7 6 4 2 4 5 7 8 9 9 10 11 14 15 16 16 16 16 16 16 16 17 18 20 20 19 17 16 16 18 19 18 17 16 14 11 11 12 13
2 4 8 8 6 6 6 4 5 3 3 4 2 1 4 4 6 8 9 10 12 12 12 13 17 20 20 21 25 27 26 24 24 24 23 19 13 13 16 14 12 13 13 11 11 12 10 8 6 2 1 3 5 6 9 11 8 6 8 9 7 5 5 6 8 9 9 11 13 14 16 17 17 17 17 16 15 15 16 18 19 20 19 18 16 15 16 18 19 19 19 18 15 12 12 14 14
4 7 7 6 4 5 3 2 5 3 2 4 7 6 3 4 6 9 10 10 12 13 13 13 17 20 19 20 24 27 27 26 26 25 23 20 18 17 14 11 11 12 13 11 8 8 8 5 2 1 3 5 8 9 11 10 8 7 8 10 9 7 7 8 9 10 11 13 14 15 15 15 14 14 14 14 14 15 16 17 18 18 18 17 16 16 16 17 18 19 19 18 18 16 16 16 17
9 9 7 6 4 3 2 2 3 3 3 4 11 9 3 3 7 9 9 8 13 15 13 14 16 18 18 18 22 26 27 28 27 24 22 21 21 19 17 16 15 13 12 11 8 5 4 2 0 3 5 7 9 10 10 8 7 7 8 9 7 6 6 7 8 9 10 11 12 12 12 12 12 12 12 12 12 12 13 14 15 16 17 17 18 18 18 18 19 19 20 20 20 19 19 19 19
10 6 5 6 3 2 2 2 1 4 3 2 8 9 4 4 6 10 12 8 12 16 15 17 18 18 18 16 18 20 24 28 28 25 24 22 19 17 16 16 14 12 10 8 6 4 3 2 1 4 6 7 8 8 7 6 6 7 7 7 6 5 5 6 7 8 8 9 9 10 10 11 11 11 11 11 11 11 12 13 14 15 16 17 18 20 20 20 20 20 20 20 20 20 20 21 21
8 5 7 7 4 4 4 3 2 4 2 1 2 5 4 3 2 7 15 15 14 16 19 22 22 21 19 16 16 18 22 27 28 26 24 22 19 17 15 14 12 10 9 7 6 4 3 3 2 5 6 6 5 5 5 6 6 6 6 6 6 6 6 7 8 8 8 8 9 9 10 10 10 11 11 11 12 13 13 14 15 16 17 19 20 20 21 21 21 21 21 20 20 20 20 20 20
8 7 9 8 5 5 5 3 1 1 2 2 1 3 2 2 1 0 9 15 17 19 21 24 25 23 21 19 20 20 22 27 27 25 23 21 19 17 14 13 12 10 9 7 6 5 4 4 3 4 5 4 3 4 5 6 6 6 6 6 6 6 7 7 7 7 8 9 9 10 10 10 11 12 13 13 14 15 16 16 17 17 18 18 19 20 20 21 21 22 22 22 21 20 20 20 20
5 3 4 6 4 4 4 4 3 3 3 3 3 4 2 3 1 3 2 10 18 22 21 22 23 21 20 21 22 22 23 26 26 24 22 20 18 16 14 13 12 11 9 7 5 4 3 4 4 5 4 3 4 5 5 5 5 5 6 6 6 6 6 6 7 8 9 10 10 11 11 12 13 13 14 14 15 15 15 16 16 17 17 18 19 19 20 20 21 21 21 21 21 21 20 20 19
3 1 2 4 4 3 2 1 1 3 4 3 4 3 1 0 1 1 5 12 19 23 23 23 22 19 20 20 21 24 25 23 23 22 21 19 18 16 14 13 12 11 8 6 4 3 3 4 4 4 4 4 5 5 5 5 5 5 6 6 6 6 6 7 8 9 10 11 11 12 12 13 13 14 14 14 15 15 15 16 16 17 18 18 19 20 20 20 20 21 20 20 20 20 20 20 20
3 4 5 3 3 4 3 1 2 1 4 3 3 2 1 1 0 4 11 15 17 19 21 23 23 21 21 20 22 24 24 23 23 23 21 19 18 16 14 14 12 9 6 4 3 2 2 3 4 4 4 4 4 5 5 5 6 6 6 6 7 7 7 9 10 11 12 12 12 12 13 13 13 14 14 14 15 15 16 16 17 18 19 19 20 20 20 20 20 21 21 21 21 20 21 21 21
5 6 6 4 3 2 2 2 2 2 4 3 2 5 6 4 3 8 14 15 15 16 18 21 23 24 22 21 22 23 25 26 25 23 22 20 17 16 15 14 11 8 6 4 3 3 2 3 5 5 4 4 4 4 5 5 6 6 6 7 7 7 9 10 12 12 12 12 12 12 12 13 13 14 14 14 15 15 16 17 18 19 20 20 20 21 21 21 21 22 22 22 22 22 23 23 23
2 6 7 4 3 3 2 2 3 4 4 2 3 6 7 5 5 12 16 16 17 18 18 19 21 24 24 22 21 23 26 28 27 26 24 20 18 17 16 14 11 9 6 4 3 2 2 4 4 5 5 5 5 5 5 5 5 6 7 7 8 9 10 12 13 12 11 11 11 12 13 13 14 14 14 15 15 16 17 18 19 19 20 20 21 21 22 22 23 23 23 24 24 25 25 26 26
2 6 7 2 1 3 3 2 2 3 3 2 3 4 5 6 8 16 19 19 21 21 19 19 22 25 24 23 22 23 25 27 28 28 24 20 19 17 16 14 11 8 5 2 1 1 1 2 3 4 5 5 4 4 5 5 5 7 7 8 9 10 12 13 12 12 11 12 13 13 14 15 15 15 15 16 16 17 18 19 19 20 21 21 22 22 23 24 24 25 25 26 26 27 27 27 28
5 7 8 4 1 1 2 2 1 1 3 3 3 3 4 4 8 17 22 22 22 23 19 18 22 24 22 22 23 23 24 25 27 27 24 21 20 18 16 13 10 7 4 3 4 3 2 1 3 4 4 4 3 4 4 4 5 6 7 9 10 12 13 13 12 12 13 14 14 15 15 15 15 16 16 17 17 18 19 20 20 21 22 23 24 24 25 25 26 27 27 28 28 28 29 29 29
9 8 7 7 5 3 4 4 2 1 1 2 2 2 2 2 2 9 17 18 19 22 20 18 22 23 22 22 24 24 24 25 28 27 24 22 21 19 16 12 9 6 5 6 7 6 3 0 2 2 2 2 2 3 4 4 6 7 9 11 12 13 13 13 13 13 14 14 15 15 15 15 15 16 17 17 18 19 20 20 21 22 23 24 25 26 26 27 27 28 29 29 30 30 30 31 31
Wind_Direction
283 284 288 289 296 301 342 29 353 44 27 262 225 282 262 234 300 263 219 293 287 44 38 93 137 152 141 152 156 110 82 152 149 151 134 116 147 153 159 163 168 171 168 167 167 165 165 162 168 176 169 155 140 129 124 122 123 131 130 126 129 129 125 122 121 121 121 122 123 124 124 123 120 117 114 113 110 106 103 100 100 100 101 101 101 101 101 103 102 102 102 99 94 94 91 88 82
280 282 286 280 288 271 182 70 285 201 233 256 197 209 298 309 279 275 300 308 227 96 79 92 107 115 102 111 120 102 91 88 84 106 109 136 146 151 158 162 167 171 169 169 167 165 164 163 170 179 174 160 143 131 126 125 127 132 132 130 131 131 128 125 125 125 124 125 126 126 125 121 120 119 116 113 109 105 101 100 101 100 100 100 101 101 102 102 103 105 101 95 94 92 91 90 82
272 273 276 271 290 146 141 103 240 191 239 257 238 196 320 276 259 293 348 236 133 107 70 84 89 85 92 116 108 58 102 102 125 120 128 143 147 153 159 163 167 171 172 169 166 166 164 164 170 179 180 165 147 135 130 131 132 132 135 136 137 136 131 127 127 128 128 129 129 128 124 121 120 119 115 112 109 106 103 102 100 99 99 98 99 100 101 102 105 104 94 88 91 93 97 94 82
264 262 259 221 141 123 128 163 209 195 239 256 264 197 217 257 256 319 25 145 135 82 57 113 70 53 51 141 96 65 104 138 150 135 139 149 153 156 160 164 168 172 174 169 167 166 165 166 170 180 183 167 152 142 138 137 134 133 138 140 140 139 136 133 131 132 133 133 132 130 123 121 120 117 114 112 109 106 105 104 101 99 100 97 95 97 100 100 103 100 86 79 86 108 107 84 69
260 251 227 198 175 139 120 164 127 208 224 221 262 203 215 240 230 81 122 144 162 342 121 130 104 83 72 81 74 89 110 133 148 143 144 153 159 159 162 166 170 174 174 169 167 166 166 168 171 180 182 170 158 151 144 138 133 132 138 142 140 138 141 140 137 137 136 135 133 130 124 120 120 119 116 112 108 106 105 103 100 98 97 94 93 95 99 101 102 93 72 65 82 123 98 60 54
242 175 173 173 162 144 145 206 192 218 215 183 240 250 238 227 152 113 116 135 157 150 142 122 134 130 94 60 67 111 118 136 151 151 149 156 162 163 164 168 172 175 175 169 166 166 168 170 173 178 179 173 165 159 149 138 132 133 138 142 140 139 142 142 140 137 133 133 132 131 128 123 123 121 118 114 109 107 105 102 99 98 95 93 94 95 97 104 112 80 54 58 99 130 68 51 53
200 162 145 150 128 127 206 227 214 224 211 180 233 268 181 177 160 31 30 121 101 124 143 128 139 130 107 82 90 110 131 151 159 159 154 158 164 167 167 170 172 174 175 169 166 167 170 172 174 176 177 177 171 165 153 140 134 134 139 141 142 141 142 143 141 136 131 129 128 131 130 127 127 122 120 116 111 109 104 99 97 97 98 98 100 103 112 151 209 235 74 87 131 121 62 60 65
193 171 136 155 124 39 228 227 229 227 209 205 259 265 226 189 239 298 311 164 77 92 132 134 138 126 113 113 110 117 153 153 163 162 156 159 165 169 170 174 174 174 175 170 168 169 171 173 174 175 177 180 177 170 157 145 138 137 139 141 143 144 145 145 142 138 134 130 125 124 127 133 133 129 126 123 118 114 107 103 101 101 102 105 108 114 129 150 157 136 115 127 140 101 71 71 74
181 164 130 160 188 205 224 231 246 230 246 259 260 256 250 237 246 274 269 206 188 164 146 144 139 136 138 120 113 120 148 155 166 164 160 163 167 171 174 178 179 180 176 171 171 171 173 174 174 176 179 182 179 174 163 148 143 142 140 142 144 146 150 148 141 139 139 137 131 128 134 140 138 132 128 125 120 115 107 104 103 105 106 104 102 100 92 98 111 115 123 137 137 92 81 80 78
166 154 135 117 183 222 233 228 232 229 258 269 261 261 270 258 235 235 245 258 191 170 156 154 127 130 136 122 121 134 149 156 167 166 165 167 170 173 174 178 183 184 179 173 173 174 176 175 176 177 179 184 182 178 169 153 150 147 143 142 145 151 156 153 141 139 142 142 139 140 144 143 138 131 123 119 116 108 97 92 93 98 102 100 95 87 88 97 111 125 136 144 139 93 86 85 81
153 133 139 153 196 225 227 234 231 247 282 298 280 268 279 264 242 226 233 255 180 167 164 167 140 132 130 122 135 153 154 156 170 167 163 169 173 176 175 179 184 185 179 176 177 174 174 175 176 178 181 185 184 182 175 165 157 152 149 146 148 157 162 157 145 141 144 145 146 145 145 139 132 130 123 117 111 100 87 84 89 93 95 94 96 100 96 100 116 134 146 153 147 100 90 88 84
169 124 145 195 213 221 218 250 237 268 277 276 276 255 279 254 227 222 215 213 183 172 179 183 160 141 129 138 152 161 156 159 173 169 164 171 177 181 179 180 183 182 178 179 180 175 173 176 176 178 183 185 185 186 185 177 165 158 157 154 154 159 163 158 146 142 140 143 147 140 144 143 136 135 126 117 108 95 85 86 91 91 91 89 87 89 95 106 123 142 152 161 161 108 91 89 85
182 137 161 188 211 207 174 248 238 288 262 244 236 196 306 228 210 220 207 196 184 179 193 187 162 145 126 149 162 167 162 168 174 170 171 175 177 177 174 177 180 176 175 178 179 177 177 178 178 180 184 186 190 191 191 186 174 166 165 163 163 162 161 155 146 141 135 134 138 134 142 148 143 138 127 118 103 91 88 91 94 92 89 86 78 73 81 111 131 150 161 171 172 125 90 85 84
180 160 178 188 139 175 170 228 218 240 245 225 190 197 324 248 226 231 200 180 187 187 191 179 163 143 131 147 168 180 170 173 175 172 176 175 170 167 167 172 174 170 173 177 176 177 180 180 181 183 185 188 191 192 192 189 181 174 173 169 164 162 156 151 147 141 136 134 138 138 136 130 122 130 132 121 95 86 88 89 95 95 91 86 79 73 75 119 144 159 173 183 183 149 92 80 78
178 160 165 195 165 181 200 218 203 218 226 151 170 346 333 280 257 236 201 188 188 176 162 164 166 153 163 168 182 183 173 172 175 173 173 169 165 164 165 165 165 167 171 173 173 178 182 182 183 185 186 187 190 192 194 191 186 177 174 169 161 161 153 147 149 145 141 140 140 137 124 104 95 117 131 114 91 86 88 86 90 93 95 92 85 82 81 123 154 170 184 193 197 185 116 85 74
174 154 124 215 200 197 193 187 177 213 192 159 189 355 345 314 295 230 207 198 160 157 152 156 173 178 177 180 181 176 171 170 171 169 168 164 160 158 159 160 161 165 167 169 173 181 181 181 185 186 184 187 191 193 195 193 187 175 169 166 163 162 154 145 151 152 148 147 143 132 124 119 97 96 93 84 91 88 90 90 90 89 93 92 86 86 87 121 157 180 194 199 208 217 177 119 82
166 154 187 213 205 194 185 181 178 197 273 213 211 4 344 320 36 155 188 181 144 151 153 156 178 190 176 185 182 172 167 166 164 163 162 157 156 155 158 161 162 164 166 171 175 177 177 179 184 184 184 188 191 192 192 188 181 171 164 164 164 166 161 151 150 148 144 142 137 128 126 133 83 71 68 67 78 77 86 94 97 89 82 82 82 87 89 112 158 187 200 205 216 235 231 211 130
168 165 210 213 202 188 179 187 187 271 313 284 308 353 325 273 131 132 145 148 140 141 136 150 171 183 178 184 179 170 163 161 161 161 160 157 160 160 161 163 165 165 165 169 169 172 175 179 182 184 185 187 189 188 184 178 174 168 163 164 165 163 157 150 148 143 139 132 130 129 116 98 66 65 65 66 73 71 75 87 99 93 86 79 78 85 86 99 148 191 205 210 219 238 246 256 256
180 141 214 218 183 178 197 202 211 243 282 308 311 339 318 224 146 147 155 151 150 140 128 139 143 158 169 167 170 168 159 159 159 161 162 160 163 161 162 164 164 165 166 166 164 168 174 178 181 183 184 184 183 178 172 169 169 166 161 161 158 152 145 144 146 139 139 134 128 124 101 86 72 69 70 73 77 78 78 83 96 90 91 85 79 84 84 93 119 191 206 211 220 235 243 253 265
194 190 225 227 183 225 244 231 247 253 276 307 306 331 318 198 156 160 168 163 166 159 148 149 151 156 159 159 165 164 156 159 159 161 164 161 163 162 163 163 163 164 164 165 166 169 172 176 177 178 179 177 173 169 167 164 163 160 151 143 132 130 133 130 127 122 127 124 118 112 96 82 66 63 69 71 69 73 82 87 99 97 93 82 75 82 83 94 99 188 210 212 217 231 238 242 249
179 197 227 178 163 224 244 243 259 267 275 286 296 325 311 170 166 168 161 165 185 186 169 168 169 164 161 161 162 159 156 158 160 162 162 160 162 163 163 162 162 163 162 162 165 166 169 174 174 173 172 169 167 165 162 158 153 143 129 123 118 118 117 111 107 107 112 110 107 98 83 71 60 63 67 69 62 60 67 75 87 95 119 126 62 60 66 86 87 154 212 213 215 226 232 234 231
172 199 226 184 171 226 257 259 270 276 276 270 280 316 214 166 182 175 172 180 208 198 194 190 174 166 163 163 159 157 157 159 162 163 162 162 165 164 163 161 159 160 161 163 163 164 168 171 170 168 164 161 160 155 152 145 136 125 118 115 112 110 105 101 98 97 99 97 93 80 70 65 64 72 66 63 62 58 50 45 58 68 98 152 185 252 9 49 69 78 218 215 216 223 229 233 233
208 200 212 227 220 235 263 270 274 274 270 271 262 276 193 176 180 176 182 279 330 228 214 190 168 166 162 159 157 156 157 159 163 166 166 164 166 164 163 164 161 160 161 163 165 165 165 166 165 161 156 154 147 141 137 129 121 115 113 109 104 102 99 99 95 93 92 85 76 67 64 62 62 71 64 47 34 45 38 20 21 27 38 71 178 201 225 273 267 276 234 217 218 224 230 234 238
226 216 200 239 236 243 261 267 270 274 270 272 267 249 210 193 172 167 170 350 359 232 213 182 156 158 157 153 154 156 157 158 162 166 165 168 174 169 165 167 164 163 164 165 166 164 161 160 157 153 151 146 137 130 122 115 112 109 106 101 97 96 95 98 96 92 88 79 67 58 53 47 44 41 33 14 1 5 1 358 358 356 360 3 355 211 211 227 247 247 252 224 221 225 232 237 242
222 221 235 254 253 255 266 271 271 277 276 272 265 237 215 190 154 147 135 85 109 138 171 161 148 153 154 152 153 155 155 156 162 167 167 176 183 175 168 168 165 165 166 166 166 161 158 155 152 150 146 139 130 123 117 113 110 107 104 100 100 99 100 103 99 93 80 66 50 41 33 22 16 5 352 340 341 344 341 340 338 333 322 324 336 336 243 222 233 242 253 242 228 228 233 240 245
203 210 230 245 256 262 268 274 273 278 273 243 137 112 141 143 136 128 112 124 121 127 141 140 142 146 146 150 153 154 156 161 168 174 178 182 185 178 169 167 166 166 168 168 165 158 156 154 151 148 142 137 131 126 123 120 115 112 111 109 111 106 108 109 103 97 72 45 27 21 17 7 358 345 331 325 328 330 333 334 325 314 304 310 319 327 323 283 250 244 249 251 242 233 234 240 245
182 201 227 244 256 270 270 269 264 269 260 198 144 123 128 137 151 136 128 135 127 127 128 129 134 135 140 151 157 161 165 171 177 180 182 181 179 174 169 170 170 168 169 167 161 158 156 153 151 147 144 142 138 135 131 127 122 122 123 122 125 119 115 110 100 86 51 30 18 17 4 348 334 322 312 308 312 317 324 328 330 316 298 318 327 314 318 315 294 272 256 248 245 241 238 241 243
180 192 227 247 256 269 260 260 257 253 257 190 144 127 111 111 149 128 131 132 124 124 119 117 118 113 123 146 164 175 177 179 185 186 182 177 171 167 169 173 171 168 168 163 158 157 155 153 152 149 148 148 144 140 137 137 134 136 138 136 135 129 118 106 94 74 55 40 17 3 339 332 322 311 300 295 299 311 322 327 330 323 311 321 331 320 310 305 298 296 282 262 250 244 243 242 243
172 176 242 247 260 263 239 242 246 228 197 156 140 129 105 65 79 118 131 132 125 117 105 101 100 98 104 116 150 179 183 181 186 188 183 173 164 162 165 169 168 165 161 156 156 155 153 154 155 152 152 151 146 142 145 148 144 146 147 145 138 126 119 112 101 89 82 62 345 325 326 335 334 322 304 292 292 321 336 338 333 324 319 317 316 315 313 305 295 292 288 284 275 259 251 247 246
165 156 270 248 244 251 220 206 194 185 153 153 154 165 130 80 80 112 128 133 125 110 101 102 106 118 127 112 97 119 153 171 180 184 183 166 154 158 160 162 166 161 154 153 154 155 152 153 155 155 155 153 149 148 153 154 150 150 146 142 130 116 121 128 128 137 140 83 315 311 328 342 351 350 336 310 294 3 11 352 338 327 318 309 304 307 307 305 297 293 287 283 284 279 271 261 255
166 158 234 232 221 219 131 112 177 163 142 157 182 230 122 102 97 92 110 129 123 109 107 113 119 128 131 125 111 92 109 174 178 176 176 159 146 155 159 159 161 156 152 151 151 155 154 155 159 158 159 158 155 154 155 156 152 144 136 130 121 126 148 157 159 164 164 200 282 290 317 344 357 3 4 353 309 359 17 357 340 328 320 311 305 302 293 292 293 293 291 285 280 278 276 272 269
127 188 196 175 212 213 48 25 202 163 131 134 256 177 104 94 107 78 79 114 118 116 121 123 123 124 121 121 127 123 147 190 178 170 170 162 155 162 168 163 159 155 151 147 151 159 159 159 162 163 167 165 160 158 156 155 144 130 126 126 131 150 167 167 167 185 224 230 213 224 292 351 352 352 360 359 331 304 312 316 320 319 318 313 303 296 288 287 292 296 296 294 289 283 278 275 274
174 212 197 168 197 218 30 57 1 8 130 93 341 152 85 87 104 82 79 101 101 90 105 121 119 121 125 127 133 137 157 182 179 180 175 171 171 172 174 169 163 161 158 154 156 162 162 162 166 170 173 171 167 161 152 146 134 128 129 135 146 161 172 181 192 210 244 257 266 299 331 347 335 334 343 346 337 310 294 291 300 312 313 312 305 298 294 292 294 295 295 296 295 292 288 284 281
177 196 200 189 189 198 177 110 20 3 123 120 55 79 70 75 87 89 99 116 109 80 57 85 105 120 130 140 151 154 158 161 164 174 170 170 177 174 170 168 164 163 164 162 157 158 161 162 169 174 175 173 167 156 144 140 135 137 142 147 158 174 184 201 222 248 283 307 329 342 347 344 334 333 336 336 333 315 299 291 295 305 308 311 310 303 298 294 294 294 293 294 293 292 292 292 291
160 170 184 192 180 191 284 89 6 358 85 100 94 90 77 73 81 104 125 139 135 123 120 120 118 131 142 155 167 164 157 155 157 160 157 160 168 167 161 158 161 162 163 161 155 157 164 165 170 171 168 167 162 155 147 142 143 149 158 163 176 204 221 248 289 309 316 326 335 339 342 344 347 348 345 343 332 316 309 308 308 311 313 316 318 314 306 298 296 297 296 296 295 295 295 295 294
150 167 180 185 175 157 72 67 350 9 78 69 94 105 94 90 97 128 149 148 136 130 137 142 138 135 139 151 159 156 152 151 153 156 159 163 163 157 151 153 161 162 158 158 157 159 162 163 165 162 159 160 161 162 149 141 149 154 169 175 183 209 225 270 295 314 320 332 342 344 348 351 357 357 354 349 340 335 332 332 330 326 327 327 323 320 314 309 304 302 301 300 300 299 297 297 296
142 158 164 165 165 105 81 55 350 323 77 68 95 100 95 103 110 143 171 151 124 124 138 143 139 131 136 149 142 139 144 143 141 143 148 157 158 152 151 149 147 149 151 159 163 159 157 156 158 156 151 148 148 147 136 136 144 142 159 146 139 163 155 200 269 23 22 10 4 356 357 1 5 5 1 359 357 357 357 356 355 351 348 344 337 333 329 326 321 316 312 309 307 305 302 302 303
123 157 156 164 166 97 92 34 7 81 98 98 103 90 90 108 116 137 164 139 115 125 136 127 109 92 101 146 139 131 134 140 146 143 137 143 149 148 150 150 146 147 154 164 162 151 149 148 147 143 133 129 128 127 126 125 120 114 114 89 95 163 165 228 18 58 51 32 16 7 9 15 17 14 9 8 5 3 2 1 358 357 355 351 346 341 336 331 326 322 318 316 315 314 311 312 315
108 142 149 165 172 116 112 51 39 85 103 121 108 90 93 96 102 115 112 109 99 102 116 114 103 83 61 86 111 112 116 130 144 147 140 143 150 148 147 156 155 150 150 153 148 140 138 133 130 128 119 117 116 111 104 87 81 73 71 61 40 27 9 360 27 61 51 24 5 360 1 7 15 16 11 5 360 358 356 353 351 348 345 342 338 332 327 325 323 321 319 319 320 321 318 318 321
122 141 157 159 144 159 123 67 66 77 104 132 114 96 97 87 89 81 76 102 98 98 114 119 121 120 117 113 115 112 111 123 134 140 145 147 149 151 155 158 151 146 145 138 135 134 132 125 120 117 109 107 100 82 56 37 31 27 51 61 41 35 61 70 73 62 25 4 354 347 341 343 351 353 350 345 340 339 339 338 334 331 328 329 331 329 324 323 322 321 320 319 321 324 321 319 322
181 181 182 133 113 79 96 104 96 84 101 130 117 99 97 93 105 97 101 118 106 110 122 126 127 130 142 145 139 139 134 139 140 140 147 150 150 154 153 153 146 141 138 131 132 134 132 128 123 118 105 97 88 66 47 32 15 2 36 73 68 76 108 95 8 350 359 358 355 352 347 345 344 344 343 340 338 337 336 335 330 328 328 328 331 332 328 329 329 327 325 323 324 325 320 317 318
202 213 195 142 128 116 120 138 127 92 118 150 130 110 119 117 126 124 140 136 117 122 128 132 135 137 147 150 146 154 158 161 159 142 139 140 146 147 138 140 150 150 141 139 142 138 139 138 131 129 122 104 84 47 30 18 3 352 344 189 157 186 237 282 329 355 2 356 354 351 343 339 339 340 338 336 336 336 337 337 333 330 330 327 327 328 328 328 329 330 329 327 330 328 320 316 314
200 196 157 133 126 128 138 154 149 101 131 151 284 142 135 153 150 141 155 147 129 130 130 135 139 141 149 150 153 168 171 168 169 162 148 141 146 155 143 136 150 151 147 149 149 147 156 155 144 145 143 113 67 30 15 2 357 357 349 339 25 9 339 345 356 354 342 339 340 335 328 327 328 327 326 328 331 331 330 329 325 323 324 323 323 326 326 323 323 326 325 323 326 323 315 313 314
179 155 142 138 137 140 149 140 105 106 111 111 334 27 122 170 174 155 156 147 139 141 138 140 142 143 149 151 157 168 170 168 167 163 154 143 142 154 152 148 149 147 145 151 154 155 160 156 147 148 137 62 27 19 1 348 350 353 345 342 346 340 334 333 330 327 324 322 319 316 315 316 317 317 319 324 326 324 321 319 316 317 320 320 318 319 319 318 318 317 313 311 316 317 309 306 307
155 152 144 141 143 140 146 125 100 122 147 140 185 172 133 165 170 160 163 158 154 157 156 152 150 150 154 156 159 160 160 161 159 155 149 144 147 150 144 147 158 160 160 164 161 153 149 141 131 126 24 24 23 8 343 332 333 336 330 326 314 289 289 303 309 312 310 307 307 310 314 316 317 318 319 319 318 316 314 313 314 317 321 321 319 314 310 311 311 310 310 311 314 311 302 298 296
127 138 122 100 91 93 110 131 109 125 204 176 182 192 156 160 178 171 173 178 176 171 164 162 159 157 159 161 158 155 156 157 155 155 155 155 162 163 162 171 171 163 159 165 169 148 133 126 115 9 353 2 355 337 320 314 316 320 318 317 311 292 282 287 291 294 300 306 313 320 324 327 329 329 328 326 323 319 315 314 316 320 324 327 327 322 316 315 317 319 322 322 320 314 305 300 295
125 129 115 98 84 75 73 68 101 167 226 183 182 191 176 174 191 186 187 189 181 174 164 163 163 159 160 160 155 154 156 156 153 153 153 154 158 158 165 172 170 165 157 161 172 152 128 133 61 354 356 345 328 314 305 304 312 317 319 322 324 315 299 296 297 302 311 320 329 337 342 344 346 346 344 341 337 332 326 325 326 329 331 332 333 333 334 334 335 335 334 333 330 326 320 314 306
143 137 130 128 111 109 121 88 137 211 209 167 181 186 196 203 196 198 203 193 178 176 167 164 164 159 156 153 152 152 150 150 152 153 151 152 155 152 151 153 151 151 147 148 154 143 132 131 29 345 341 329 314 307 306 315 324 326 329 332 335 336 331 326 324 326 333 340 348 354 356 357 358 359 357 355 353 349 345 342 340 339 338 338 339 341 342 343 343 343 342 341 339 336 332 327 322
171 154 155 168 159 162 185 172 189 210 177 32 171 174 204 222 191 201 201 192 187 185 172 165 161 156 153 149 147 145 144 146 150 152 151 151 154 152 147 142 136 135 135 128 122 114 103 93 42 330 320 315 310 312 319 327 330 329 332 333 335 342 343 341 341 346 354 1 7 8 7 7 7 7 4 2 0 358 355 352 349 346 345 345 345 345 345 346 347 348 347 347 346 344 341 337 334
185 169 174 187 175 172 188 175 161 176 135 38 102 161 213 206 90 241 199 189 185 181 174 166 159 155 152 151 149 145 144 148 149 149 150 150 152 149 143 136 130 127 123 111 99 87 75 70 32 332 315 311 319 328 329 329 327 329 333 335 342 350 350 350 357 9 16 19 19 17 14 13 11 9 7 5 4 2 0 358 355 354 352 351 350 350 350 350 350 350 349 349 348 347 345 342 339
187 159 173 189 182 182 188 176 169 151 124 75 121 170 207 171 110 339 212 171 167 167 166 159 155 154 152 150 151 149 147 150 152 151 150 150 150 147 141 136 133 129 122 110 96 74 43 18 360 339 327 329 335 334 331 331 330 334 343 351 360 2 2 9 22 28 29 28 26 22 19 17 16 15 13 12 10 7 5 3 0 358 356 355 354 353 352 352 351 351 350 349 348 348 346 343 341
195 118 159 194 181 147 123 147 129 123 125 125 158 185 303 67 354 312 164 154 154 154 151 150 152 154 154 153 153 153 152 154 155 155 153 151 149 146 144 142 137 129 118 105 87 61 17 355 345 333 331 331 329 331 336 341 343 348 357 9 19 22 23 30 36 38 35 33 29 25 23 22 21 21 20 18 14 10 7 4 2 360 359 358 357 356 355 354 353 353 352 352 352 351 349 347 345
147 183 192 175 111 109 118 97 43 102 171 163 148 138 121 187 182 148 151 149 148 147 147 152 156 157 160 160 158 156 156 158 159 158 157 154 151 149 147 144 137 124 113 97 74 59 36 19 2 349 342 330 329 339 346 356 2 6 17 27 33 36 39 42 44 43 40 36 31 28 27 26 25 25 22 19 15 11 9 6 5 4 4 3 2 1 1 359 359 358 358 357 357 356 355 354 352
148 190 175 112 70 74 129 148 119 184 196 161 138 164 169 182 174 152 148 146 148 151 153 156 159 163 165 164 161 159 160 161 161 161 159 156 154 152 150 146 139 128 120 102 86 79 58 40 24 13 4 356 359 3 7 18 20 25 38 44 46 48 49 49 49 46 43 38 33 30 29 28 29 28 25 22 18 14 13 12 11 10 10 9 8 6 5 4 3 2 2 1 0 0 360 359 358
154 167 151 136 197 195 166 168 168 180 189 154 145 173 189 208 176 157 155 158 162 162 161 162 164 168 166 163 161 160 161 162 163 163 160 155 155 154 152 150 143 134 122 97 92 91 64 58 35 1 349 358 11 21 29 35 39 47 55 55 56 56 55 55 54 51 47 42 39 37 36 35 36 34 31 28 25 22 20 18 17 15 13 12 10 9 8 7 6 5 5 5 5 5 4 3 2
59 148 164 184 267 190 169 162 169 181 184 167 143 166 214 227 183 170 169 171 172 169 169 171 170 169 166 163 162 160 161 162 162 162 159 154 153 153 153 151 143 136 128 120 172 173 112 72 5 323 334 359 14 31 39 46 55 59 61 63 65 65 65 63 60 57 54 51 49 46 45 43 41 39 36 33 30 27 24 21 19 17 14 13 12 11 11 10 10 9 9 9 9 8 8 6 5
160 174 183 180 115 114 173 143 82 175 178 170 157 179 220 213 183 185 182 178 176 174 172 170 168 167 165 163 162 160 161 162 162 160 156 154 154 154 156 154 146 145 156 186 199 186 160 51 336 322 341 360 19 45 50 56 62 65 71 77 78 75 73 70 67 64 61 59 56 52 50 47 44 42 39 35 32 29 26 23 21 19 17 16 15 14 14 13 12 12 11 11 10 10 9 8 7
177 181 182 180 167 160 187 187 144 100 147 166 170 200 207 149 181 204 192 183 177 172 166 162 164 165 163 162 162 160 161 163 162 160 156 156 157 158 159 156 153 166 189 193 185 173 166 355 331 312 328 352 35 59 68 75 81 88 92 90 87 82 80 77 74 70 65 62 59 56 54 50 46 43 39 36 33 30 28 26 24 22 21 19 18 17 16 15 14 13 12 11 10 9 9 8 6